CW8822 Caguas PR US current weather conditions

sailwx.info

Wind from 109

Air temperature 20.6° C
Dewpoint 19.6° C

Last reported at 2016-Feb-12 06:41 UTC.
Time now 2016-Feb-12 07:50 UTC

Location: N 18°12' W 066°01'.
View on Google Maps.

See reports from other nearby stations

  
Tides and Currents Weather Stations Pressure Air Temp Water Temp Dewpoint Dewpoint Depression Visibility Wind Speed Wind Dir Waves Ship Positions
date/time (UTC)wind fromknots sea level pressurealtimeterstation pressurevisibilityair tempwater tempwave heightnotes
2016-Feb-12 06:41 109 20.6
2016-Feb-12 06:26 106 21.1
2016-Feb-12 06:11 106 21.1
2016-Feb-12 05:56 106 21.7
2016-Feb-12 05:41 106 21.7
2016-Feb-12 05:26 106 21.7
2016-Feb-12 05:11 106 22.2
2016-Feb-12 04:56 106 22.2
2016-Feb-12 04:41 106 21.7
2016-Feb-12 04:26 106 21.7
2016-Feb-12 04:11 106 21.7
2016-Feb-12 03:56 106 21.7
2016-Feb-12 03:41 106 22.2
2016-Feb-12 03:26 106 22.2
2016-Feb-12 03:11 106 22.2
2016-Feb-12 02:56 106 22.2
2016-Feb-12 02:41 106 22.2
2016-Feb-12 02:26 106 22.2
2016-Feb-12 02:11 106 22.2
2016-Feb-12 01:56 106 22.2
2016-Feb-12 01:41 106 22.2
2016-Feb-12 01:26 106 22.2
2016-Feb-12 01:11 106 22.8
2016-Feb-12 00:56 106 22.8
2016-Feb-12 00:41 106 22.8
2016-Feb-12 00:26 106 22.8
2016-Feb-12 00:11 103 22.8
2016-Feb-11 23:56 145 22.8
2016-Feb-11 23:41 137 0 gusting 6 23.3
2016-Feb-11 23:26 148 0 gusting 5 23.3
2016-Feb-11 23:11 142 23.3
2016-Feb-11 22:56 156 23.3
2016-Feb-11 22:41 145 1 gusting 4 23.9
2016-Feb-11 22:26 140 0 gusting 6 24.4
2016-Feb-11 22:11 147 2 gusting 6 25.0
2016-Feb-11 21:56 115 0 gusting 7 25.0
2016-Feb-11 21:41 132 0 gusting 4 25.6
2016-Feb-11 21:26 142 1 gusting 8 26.1
2016-Feb-11 21:11 077 27.2
2016-Feb-11 20:56 137 0 gusting 4 27.2
2016-Feb-11 20:41 119 0 gusting 6 27.8
2016-Feb-11 20:26 144 27.8
2016-Feb-11 20:11 079 0 gusting 9 27.8
2016-Feb-11 19:56 119 27.8
2016-Feb-11 19:41 137 0 gusting 2 28.3
2016-Feb-11 19:26 085 27.2
2016-Feb-11 19:11 051 26.7
2016-Feb-11 18:56 103 1 gusting 6 27.8
2016-Feb-11 18:41 115 0 gusting 6 27.8
2016-Feb-11 18:26 109 1 gusting 6 27.8
2016-Feb-11 18:11 069 1 gusting 7 27.8
2016-Feb-11 17:56 081 1 gusting 6 27.8
2016-Feb-11 17:41 146 1 gusting 6 28.3
2016-Feb-11 17:26 099 0 gusting 6 28.3
2016-Feb-11 17:11 152 27.8
2016-Feb-11 16:56 024 2 gusting 10 28.3
2016-Feb-11 16:41 161 28.3
2016-Feb-11 16:26 086 27.8
2016-Feb-11 16:11 109 0 gusting 4 27.8
2016-Feb-11 15:56 047 2 gusting 6 27.8
2016-Feb-11 15:40 130 0 gusting 6 27.8
2016-Feb-11 15:25 132 0 gusting 6 27.2
2016-Feb-11 15:10 066 0 gusting 5 26.7
2016-Feb-11 14:55 056 25.6
2016-Feb-11 14:40 092 1 gusting 6 25.6
2016-Feb-11 14:25 113 3 gusting 6 25.6
2016-Feb-11 14:10 054 3 gusting 8 25.0
2016-Feb-11 13:55 076 25.0
2016-Feb-11 13:40 161 0 gusting 6 25.0
2016-Feb-11 13:25 063 0 gusting 8 24.4
2016-Feb-11 13:10 079 1 gusting 4 23.9
2016-Feb-11 12:55 144 23.9
2016-Feb-11 12:40 150 0 gusting 2 23.9
2016-Feb-11 12:25 150 23.3
2016-Feb-11 12:10 175 22.2
2016-Feb-11 11:55 175 21.7
2016-Feb-11 11:40 063 21.1
2016-Feb-11 11:25 063 20.6
2016-Feb-11 11:10 063 20.6
2016-Feb-11 10:55 086 20.6
2016-Feb-11 10:39 148 20.6
2016-Feb-11 10:24 148 20.6
2016-Feb-11 10:09 148 20.6
2016-Feb-11 09:54 148 20.6
2016-Feb-11 09:39 148 20.6
2016-Feb-11 09:24 148 20.6
2016-Feb-11 09:09 148 20.6
2016-Feb-11 08:54 148 20.6
2016-Feb-11 08:39 148 20.6
2016-Feb-11 08:24 148 20.6
2016-Feb-11 08:09 148 20.6
2016-Feb-11 07:54 148 21.1
2016-Feb-11 07:39 148 21.1
2016-Feb-11 07:24 148 21.1
2016-Feb-11 07:09 148 21.1
2016-Feb-11 06:54 148 21.1
2016-Feb-11 06:39 148 21.1
2016-Feb-11 06:24 148 21.1
2016-Feb-11 06:09 148 21.1
2016-Feb-11 05:54 148 21.1
2016-Feb-11 05:39 148 21.1
2016-Feb-11 05:24 148 21.7
2016-Feb-11 05:09 148 21.7
2016-Feb-11 04:54 148 21.7
2016-Feb-11 04:39 148 21.7
2016-Feb-11 04:24 148 21.7
2016-Feb-11 04:09 148 21.7
2016-Feb-11 03:54 148 22.2
2016-Feb-11 03:39 148 22.2
2016-Feb-11 03:24 148 22.2
2016-Feb-11 03:09 148 22.2
2016-Feb-11 02:54 148 22.2
2016-Feb-11 02:39 148 22.8
2016-Feb-11 02:24 148 22.8
2016-Feb-11 02:09 148 22.8
2016-Feb-11 01:54 148 22.8
2016-Feb-11 01:39 148 22.8
2016-Feb-11 01:24 148 22.8
2016-Feb-11 01:09 148 22.8
2016-Feb-11 00:54 148 22.8
2016-Feb-11 00:39 148 22.8
2016-Feb-11 00:24 148 22.8
2016-Feb-11 00:09 148 22.8
2016-Feb-10 23:54 148 23.3
2016-Feb-10 23:39 148 23.3
2016-Feb-10 23:24 148 0 gusting 5 23.3
2016-Feb-10 23:09 144 23.3
2016-Feb-10 22:54 153 0 gusting 6 23.9
2016-Feb-10 22:39 144 23.9
2016-Feb-10 22:24 168 1 gusting 7 24.4
2016-Feb-10 22:09 107 25.0
2016-Feb-10 21:54 109 25.6
2016-Feb-10 21:39 167 0 gusting 7 25.6
2016-Feb-10 21:24 198 1 gusting 9 25.6
2016-Feb-10 21:09 157 1 gusting 10 26.1
2016-Feb-10 20:54 127 0 gusting 7 26.1
2016-Feb-10 20:39 123 3 gusting 11 26.1
2016-Feb-10 20:24 080 0 gusting 6 26.7
2016-Feb-10 19:54 120 0 gusting 10 27.2
2016-Feb-10 19:39 127 1 gusting 7 27.2
2016-Feb-10 19:24 085 1 gusting 10 26.7
2016-Feb-10 19:08 076 0 gusting 7 27.8
2016-Feb-10 18:53 078 1 gusting 11 27.8
2016-Feb-10 18:38 190 0 gusting 7 27.2
2016-Feb-10 18:23 109 0 gusting 6 27.8
2016-Feb-10 18:08 122 2 gusting 11 27.2
2016-Feb-10 17:53 119 1 gusting 6 27.8
2016-Feb-10 17:38 098 1 gusting 11 26.7
2016-Feb-10 17:23 115 2 gusting 8 26.7
2016-Feb-10 17:08 082 0 gusting 4 25.6
2016-Feb-10 16:53 045 1 gusting 6 26.7
2016-Feb-10 16:38 155 1 gusting 7 27.2
2016-Feb-10 16:23 173 2 gusting 6 27.2
2016-Feb-10 16:08 034 2 gusting 8 27.2
2016-Feb-10 15:53 078 0 gusting 9 26.7
2016-Feb-10 15:38 114 0 gusting 7 26.1
2016-Feb-10 15:23 113 3 gusting 12 26.1
2016-Feb-10 15:08 144 1 gusting 8 26.7
2016-Feb-10 14:53 070 0 gusting 10 25.6
2016-Feb-10 14:38 104 2 gusting 7 26.1
2016-Feb-10 14:23 092 3 gusting 10 26.1
2016-Feb-10 14:08 083 3 gusting 8 26.1
2016-Feb-10 13:53 153 0 gusting 8 26.1
2016-Feb-10 13:38 065 2 gusting 6 25.6
2016-Feb-10 13:23 033 0 gusting 8 25.0
2016-Feb-10 13:08 102 0 gusting 6 24.4
2016-Feb-10 12:53 079 23.9
2016-Feb-10 12:38 087 23.9
2016-Feb-10 12:23 159 23.3
2016-Feb-10 12:08 144 23.3
2016-Feb-10 11:53 134 23.3
2016-Feb-10 11:38 122 22.8
2016-Feb-10 11:23 145 0 gusting 4 22.8
2016-Feb-10 11:08 124 22.8
2016-Feb-10 10:52 113 22.8
2016-Feb-10 10:37 057 0 gusting 4 22.8
2016-Feb-10 10:22 117 0 gusting 5 22.8
2016-Feb-10 10:07 134 22.8
2016-Feb-10 09:52 076 22.8
2016-Feb-10 09:37 129 22.8
2016-Feb-10 09:22 144 22.2
2016-Feb-10 09:07 145 22.2
2016-Feb-10 08:52 145 22.2
2016-Feb-10 08:37 145 22.2
2016-Feb-10 08:22 145 22.2
2016-Feb-10 08:07 145 22.2
2016-Feb-10 07:52 145 22.2
2016-Feb-10 07:37 145 22.8
2016-Feb-10 07:22 145 22.2
2016-Feb-10 07:07 145 22.2